Year,Month,Day,Hour,Minute,Value (Times are PST for insolation in W/m^2)
2012,06,13,00,00,0.00
2012,06,13,00,01,0.00
2012,06,13,00,02,0.00
2012,06,13,00,03,0.00
2012,06,13,00,04,0.00
2012,06,13,00,05,0.00
2012,06,13,00,06,0.00
2012,06,13,00,07,0.00
2012,06,13,00,08,0.00
2012,06,13,00,09,0.00
2012,06,13,00,10,0.00
2012,06,13,00,11,0.00
2012,06,13,00,12,0.00
2012,06,13,00,13,0.00
2012,06,13,00,14,0.00
2012,06,13,00,15,0.00
2012,06,13,00,16,0.00
2012,06,13,00,17,0.00
2012,06,13,00,18,0.00
2012,06,13,00,19,0.00
2012,06,13,00,20,0.00
2012,06,13,00,21,0.00
2012,06,13,00,22,0.00
2012,06,13,00,23,0.00
2012,06,13,00,24,0.00
2012,06,13,00,25,0.00
2012,06,13,00,26,0.00
2012,06,13,00,27,0.00
2012,06,13,00,28,0.00
2012,06,13,00,29,0.00
2012,06,13,00,30,0.00
2012,06,13,00,31,0.00
2012,06,13,00,32,0.00
2012,06,13,00,33,0.00
2012,06,13,00,34,0.00
2012,06,13,00,35,0.00
2012,06,13,00,36,0.00
2012,06,13,00,37,0.00
2012,06,13,00,38,0.00
2012,06,13,00,39,0.00
2012,06,13,00,40,0.00
2012,06,13,00,41,0.00
2012,06,13,00,42,0.00
2012,06,13,00,43,0.00
2012,06,13,00,44,0.00
2012,06,13,00,45,0.00
2012,06,13,00,46,0.00
2012,06,13,00,47,0.00
2012,06,13,00,48,0.00
2012,06,13,00,49,0.00
2012,06,13,00,50,0.00
2012,06,13,00,51,0.00
2012,06,13,00,52,0.00
2012,06,13,00,53,0.00
2012,06,13,00,54,0.00
2012,06,13,00,55,0.00
2012,06,13,00,56,0.00
2012,06,13,00,57,0.00
2012,06,13,00,58,0.00
2012,06,13,00,59,0.00
2012,06,13,01,00,0.00
2012,06,13,01,01,0.00
2012,06,13,01,02,0.00
2012,06,13,01,03,0.00
2012,06,13,01,04,0.00
2012,06,13,01,05,0.00
2012,06,13,01,06,0.00
2012,06,13,01,07,0.00
2012,06,13,01,08,0.00
2012,06,13,01,09,0.00
2012,06,13,01,10,0.00
2012,06,13,01,11,0.00
2012,06,13,01,12,0.00
2012,06,13,01,13,0.00
2012,06,13,01,14,0.00
2012,06,13,01,15,0.00
2012,06,13,01,16,0.00
2012,06,13,01,17,0.00
2012,06,13,01,18,0.00
2012,06,13,01,19,0.00
2012,06,13,01,20,0.00
2012,06,13,01,21,0.00
2012,06,13,01,22,0.00
2012,06,13,01,23,0.00
2012,06,13,01,24,0.00
2012,06,13,01,25,0.00
2012,06,13,01,26,0.00
2012,06,13,01,27,0.00
2012,06,13,01,28,0.00
2012,06,13,01,29,0.00
2012,06,13,01,30,0.00
2012,06,13,01,31,0.00
2012,06,13,01,32,0.00
2012,06,13,01,33,0.00
2012,06,13,01,34,0.00
2012,06,13,01,35,0.00
2012,06,13,01,36,0.00
2012,06,13,01,37,0.00
2012,06,13,01,38,0.00
2012,06,13,01,39,0.00
2012,06,13,01,40,0.00
2012,06,13,01,41,0.00
2012,06,13,01,42,0.00
2012,06,13,01,43,0.00
2012,06,13,01,44,0.00
2012,06,13,01,45,0.00
2012,06,13,01,46,0.00
2012,06,13,01,47,0.00
2012,06,13,01,48,0.00
2012,06,13,01,49,0.00
2012,06,13,01,50,0.00
2012,06,13,01,51,0.00
2012,06,13,01,52,0.00
2012,06,13,01,53,0.00
2012,06,13,01,54,0.00
2012,06,13,01,55,0.00
2012,06,13,01,56,0.00
2012,06,13,01,57,0.00
2012,06,13,01,58,0.00
2012,06,13,01,59,0.00
2012,06,13,02,00,0.00
2012,06,13,02,01,0.00
2012,06,13,02,02,0.00
2012,06,13,02,03,0.00
2012,06,13,02,04,0.00
2012,06,13,02,05,0.00
2012,06,13,02,06,0.00
2012,06,13,02,07,0.00
2012,06,13,02,08,0.00
2012,06,13,02,09,0.00
2012,06,13,02,10,0.00
2012,06,13,02,11,0.00
2012,06,13,02,12,0.00
2012,06,13,02,13,0.00
2012,06,13,02,14,0.00
2012,06,13,02,15,0.00
2012,06,13,02,16,0.00
2012,06,13,02,17,0.00
2012,06,13,02,18,0.00
2012,06,13,02,19,0.00
2012,06,13,02,20,0.00
2012,06,13,02,21,0.00
2012,06,13,02,22,0.00
2012,06,13,02,23,0.00
2012,06,13,02,24,0.00
2012,06,13,02,25,0.00
2012,06,13,02,26,0.00
2012,06,13,02,27,0.00
2012,06,13,02,28,0.00
2012,06,13,02,29,0.00
2012,06,13,02,30,0.00
2012,06,13,02,31,0.00
2012,06,13,02,32,0.00
2012,06,13,02,33,0.00
2012,06,13,02,34,0.00
2012,06,13,02,35,0.00
2012,06,13,02,36,0.00
2012,06,13,02,37,0.00
2012,06,13,02,38,0.00
2012,06,13,02,39,0.00
2012,06,13,02,40,0.00
2012,06,13,02,41,0.00
2012,06,13,02,42,0.00
2012,06,13,02,43,0.00
2012,06,13,02,44,0.00
2012,06,13,02,45,0.00
2012,06,13,02,46,0.00
2012,06,13,02,47,0.00
2012,06,13,02,48,0.00
2012,06,13,02,49,0.00
2012,06,13,02,50,0.00
2012,06,13,02,51,0.00
2012,06,13,02,52,0.00
2012,06,13,02,53,0.00
2012,06,13,02,54,0.00
2012,06,13,02,55,0.00
2012,06,13,02,56,0.00
2012,06,13,02,57,0.00
2012,06,13,02,58,0.00
2012,06,13,02,59,0.00
2012,06,13,03,00,0.00
2012,06,13,03,01,0.00
2012,06,13,03,02,0.00
2012,06,13,03,03,0.00
2012,06,13,03,04,0.00
2012,06,13,03,05,0.00
2012,06,13,03,06,0.00
2012,06,13,03,07,0.00
2012,06,13,03,08,0.00
2012,06,13,03,09,0.00
2012,06,13,03,10,0.00
2012,06,13,03,11,0.00
2012,06,13,03,12,0.00
2012,06,13,03,13,0.00
2012,06,13,03,14,0.00
2012,06,13,03,15,0.00
2012,06,13,03,16,0.00
2012,06,13,03,17,0.00
2012,06,13,03,18,0.00
2012,06,13,03,19,0.00
2012,06,13,03,20,0.00
2012,06,13,03,21,0.00
2012,06,13,03,22,0.00
2012,06,13,03,23,0.00
2012,06,13,03,24,0.00
2012,06,13,03,25,0.00
2012,06,13,03,26,0.00
2012,06,13,03,27,0.00
2012,06,13,03,28,0.00
2012,06,13,03,29,0.00
2012,06,13,03,30,0.00
2012,06,13,03,31,0.00
2012,06,13,03,32,0.00
2012,06,13,03,33,0.00
2012,06,13,03,34,0.00
2012,06,13,03,35,0.00
2012,06,13,03,36,0.00
2012,06,13,03,37,0.00
2012,06,13,03,38,0.00
2012,06,13,03,39,0.00
2012,06,13,03,40,0.00
2012,06,13,03,41,0.00
2012,06,13,03,42,0.00
2012,06,13,03,43,0.00
2012,06,13,03,44,0.00
2012,06,13,03,45,0.00
2012,06,13,03,46,0.00
2012,06,13,03,47,0.00
2012,06,13,03,48,0.00
2012,06,13,03,49,0.00
2012,06,13,03,50,0.00
2012,06,13,03,51,0.00
2012,06,13,03,52,0.00
2012,06,13,03,53,0.00
2012,06,13,03,54,0.00
2012,06,13,03,55,0.00
2012,06,13,03,56,0.00
2012,06,13,03,57,0.00
2012,06,13,03,58,0.00
2012,06,13,03,59,0.00
2012,06,13,04,00,0.00
2012,06,13,04,01,0.00
2012,06,13,04,02,0.00
2012,06,13,04,03,0.00
2012,06,13,04,04,0.00
2012,06,13,04,05,0.00
2012,06,13,04,06,0.00
2012,06,13,04,07,0.00
2012,06,13,04,08,0.00
2012,06,13,04,09,0.00
2012,06,13,04,10,0.00
2012,06,13,04,11,0.00
2012,06,13,04,12,0.00
2012,06,13,04,13,0.00
2012,06,13,04,14,0.00
2012,06,13,04,15,0.00
2012,06,13,04,16,0.00
2012,06,13,04,17,0.00
2012,06,13,04,18,0.00
2012,06,13,04,19,0.00
2012,06,13,04,20,0.00
2012,06,13,04,21,0.00
2012,06,13,04,22,0.00
2012,06,13,04,23,0.00
2012,06,13,04,24,0.00
2012,06,13,04,25,0.00
2012,06,13,04,26,0.00
2012,06,13,04,27,0.00
2012,06,13,04,28,0.00
2012,06,13,04,29,0.00
2012,06,13,04,30,0.00
2012,06,13,04,31,0.00
2012,06,13,04,32,0.00
2012,06,13,04,33,0.00
2012,06,13,04,34,0.00
2012,06,13,04,35,0.00
2012,06,13,04,36,0.00
2012,06,13,04,37,0.00
2012,06,13,04,38,0.00
2012,06,13,04,39,0.00
2012,06,13,04,40,0.00
2012,06,13,04,41,0.00
2012,06,13,04,42,0.00
2012,06,13,04,43,0.00
2012,06,13,04,44,0.00
2012,06,13,04,45,0.00
2012,06,13,04,46,0.00
2012,06,13,04,47,0.00
2012,06,13,04,48,0.00
2012,06,13,04,49,0.00
2012,06,13,04,50,0.00
2012,06,13,04,51,0.00
2012,06,13,04,52,0.00
2012,06,13,04,53,0.00
2012,06,13,04,54,0.00
2012,06,13,04,55,0.00
2012,06,13,04,56,0.00
2012,06,13,04,57,0.00
2012,06,13,04,58,0.00
2012,06,13,04,59,0.00
2012,06,13,05,00,0.00
2012,06,13,05,01,0.00
2012,06,13,05,02,0.00
2012,06,13,05,03,0.00
2012,06,13,05,04,0.00
2012,06,13,05,05,0.00
2012,06,13,05,06,0.00
2012,06,13,05,07,0.00
2012,06,13,05,08,0.00
2012,06,13,05,09,0.00
2012,06,13,05,10,0.00
2012,06,13,05,11,0.00
2012,06,13,05,12,0.00
2012,06,13,05,13,0.00
2012,06,13,05,14,0.00
2012,06,13,05,15,0.00
2012,06,13,05,16,0.00
2012,06,13,05,17,0.00
2012,06,13,05,18,0.00
2012,06,13,05,19,0.00
2012,06,13,05,20,0.00
2012,06,13,05,21,0.00
2012,06,13,05,22,0.00
2012,06,13,05,23,0.00
2012,06,13,05,24,0.00
2012,06,13,05,25,1.00
2012,06,13,05,26,5.00
2012,06,13,05,27,5.00
2012,06,13,05,28,5.00
2012,06,13,05,29,5.00
2012,06,13,05,30,5.00
2012,06,13,05,31,5.00
2012,06,13,05,32,5.00
2012,06,13,05,33,6.10
2012,06,13,05,34,7.00
2012,06,13,05,35,7.00
2012,06,13,05,36,7.00
2012,06,13,05,37,7.00
2012,06,13,05,38,7.00
2012,06,13,05,39,9.20
2012,06,13,05,40,11.00
2012,06,13,05,41,11.00
2012,06,13,05,42,11.00
2012,06,13,05,43,11.00
2012,06,13,05,44,12.20
2012,06,13,05,45,14.00
2012,06,13,05,46,14.00
2012,06,13,05,47,15.70
2012,06,13,05,48,16.00
2012,06,13,05,49,16.00
2012,06,13,05,50,16.00
2012,06,13,05,51,16.00
2012,06,13,05,52,17.50
2012,06,13,05,53,18.00
2012,06,13,05,54,19.00
2012,06,13,05,55,19.00
2012,06,13,05,56,19.90
2012,06,13,05,57,21.00
2012,06,13,05,58,21.00
2012,06,13,05,59,21.00
2012,06,13,06,00,21.00
2012,06,13,06,01,21.00
2012,06,13,06,02,21.00
2012,06,13,06,03,22.30
2012,06,13,06,04,23.00
2012,06,13,06,05,23.10
2012,06,13,06,06,25.70
2012,06,13,06,07,28.00
2012,06,13,06,08,30.60
2012,06,13,06,09,33.00
2012,06,13,06,10,37.90
2012,06,13,06,11,38.30
2012,06,13,06,12,32.00
2012,06,13,06,13,32.00
2012,06,13,06,14,46.30
2012,06,13,06,15,54.60
2012,06,13,06,16,66.60
2012,06,13,06,17,70.00
2012,06,13,06,18,71.00
2012,06,13,06,19,65.60
2012,06,13,06,20,49.70
2012,06,13,06,21,47.00
2012,06,13,06,22,50.40
2012,06,13,06,23,49.60
2012,06,13,06,24,57.20
2012,06,13,06,25,79.60
2012,06,13,06,26,95.00
2012,06,13,06,27,95.00
2012,06,13,06,28,95.00
2012,06,13,06,29,94.60
2012,06,13,06,30,132.90
2012,06,13,06,31,125.10
2012,06,13,06,32,92.60
2012,06,13,06,33,71.60
2012,06,13,06,34,69.90
2012,06,13,06,35,90.10
2012,06,13,06,36,93.80
2012,06,13,06,37,88.00
2012,06,13,06,38,141.40
2012,06,13,06,39,169.00
2012,06,13,06,40,214.70
2012,06,13,06,41,184.10
2012,06,13,06,42,139.20
2012,06,13,06,43,146.00
2012,06,13,06,44,132.00
2012,06,13,06,45,98.40
2012,06,13,06,46,90.00
2012,06,13,06,47,91.60
2012,06,13,06,48,98.00
2012,06,13,06,49,95.50
2012,06,13,06,50,93.00
2012,06,13,06,51,93.00
2012,06,13,06,52,89.90
2012,06,13,06,53,120.50
2012,06,13,06,54,167.00
2012,06,13,06,55,130.10
2012,06,13,06,56,100.00
2012,06,13,06,57,100.00
2012,06,13,06,58,112.90
2012,06,13,06,59,106.20
2012,06,13,07,00,98.00
2012,06,13,07,01,98.00
2012,06,13,07,02,98.00
2012,06,13,07,03,98.00
2012,06,13,07,04,98.00
2012,06,13,07,05,98.00
2012,06,13,07,06,98.80
2012,06,13,07,07,102.40
2012,06,13,07,08,104.70
2012,06,13,07,09,105.00
2012,06,13,07,10,105.00
2012,06,13,07,11,107.70
2012,06,13,07,12,118.10
2012,06,13,07,13,136.80
2012,06,13,07,14,141.00
2012,06,13,07,15,160.60
2012,06,13,07,16,253.00
2012,06,13,07,17,253.00
2012,06,13,07,18,203.00
2012,06,13,07,19,153.00
2012,06,13,07,20,140.40
2012,06,13,07,21,137.00
2012,06,13,07,22,137.00
2012,06,13,07,23,137.00
2012,06,13,07,24,140.50
2012,06,13,07,25,150.90
2012,06,13,07,26,155.00
2012,06,13,07,27,201.60
2012,06,13,07,28,210.90
2012,06,13,07,29,237.00
2012,06,13,07,30,212.40
2012,06,13,07,31,190.00
2012,06,13,07,32,190.00
2012,06,13,07,33,255.20
2012,06,13,07,34,290.00
2012,06,13,07,35,258.40
2012,06,13,07,36,204.70
2012,06,13,07,37,190.10
2012,06,13,07,38,186.00
2012,06,13,07,39,176.50
2012,06,13,07,40,175.50
2012,06,13,07,41,174.80
2012,06,13,07,42,176.00
2012,06,13,07,43,176.00
2012,06,13,07,44,180.30
2012,06,13,07,45,180.50
2012,06,13,07,46,184.60
2012,06,13,07,47,200.00
2012,06,13,07,48,200.00
2012,06,13,07,49,184.60
2012,06,13,07,50,178.00
2012,06,13,07,51,178.10
2012,06,13,07,52,179.00
2012,06,13,07,53,179.00
2012,06,13,07,54,179.00
2012,06,13,07,55,185.80
2012,06,13,07,56,188.20
2012,06,13,07,57,192.00
2012,06,13,07,58,192.00
2012,06,13,07,59,192.00
2012,06,13,08,00,192.00
2012,06,13,08,01,192.00
2012,06,13,08,02,192.00
2012,06,13,08,03,192.00
2012,06,13,08,04,192.00
2012,06,13,08,05,192.00
2012,06,13,08,06,192.00
2012,06,13,08,23,258.00
2012,06,13,08,24,258.00
2012,06,13,08,25,258.00
2012,06,13,08,26,265.20
2012,06,13,08,27,306.00
2012,06,13,08,28,306.00
2012,06,13,08,29,439.20
2012,06,13,08,30,536.00
2012,06,13,08,31,536.00
2012,06,13,08,32,492.10
2012,06,13,08,33,258.00
2012,06,13,08,34,258.00
2012,06,13,08,35,326.30
2012,06,13,08,36,376.00
2012,06,13,08,37,376.00
2012,06,13,08,38,362.00
2012,06,13,08,39,283.00
2012,06,13,08,40,343.30
2012,06,13,08,41,417.00
2012,06,13,08,42,417.00
2012,06,13,08,43,432.40
2012,06,13,08,44,571.00
2012,06,13,08,45,571.00
2012,06,13,08,46,555.30
2012,06,13,08,47,535.50
2012,06,13,08,48,531.60
2012,06,13,08,49,540.50
2012,06,13,08,50,541.00
2012,06,13,08,51,541.00
2012,06,13,08,52,541.00
2012,06,13,08,53,545.20
2012,06,13,08,54,543.80
2012,06,13,08,55,543.00
2012,06,13,08,56,543.00
2012,06,13,08,57,543.00
2012,06,13,08,58,543.00
2012,06,13,08,59,540.90
2012,06,13,09,00,534.10
2012,06,13,09,01,553.90
2012,06,13,09,02,554.20
2012,06,13,09,03,550.40
2012,06,13,09,04,549.10
2012,06,13,09,05,550.00
2012,06,13,09,06,554.20
2012,06,13,09,07,555.90
2012,06,13,09,08,563.70
2012,06,13,09,09,564.20
2012,06,13,09,10,567.10
2012,06,13,09,11,569.40
2012,06,13,09,12,570.90
2012,06,13,09,13,573.30
2012,06,13,09,14,575.00
2012,06,13,09,15,575.00
2012,06,13,09,16,579.20
2012,06,13,09,17,582.00
2012,06,13,09,18,582.00
2012,06,13,09,19,585.80
2012,06,13,09,20,589.00
2012,06,13,09,21,589.00
2012,06,13,09,22,589.00
2012,06,13,09,23,601.00
2012,06,13,09,24,608.00
2012,06,13,09,25,613.00
2012,06,13,09,26,613.70
2012,06,13,09,27,618.50
2012,06,13,09,28,623.30
2012,06,13,09,29,624.00
2012,06,13,09,30,624.20
2012,06,13,09,31,626.00
2012,06,13,09,32,626.00
2012,06,13,09,33,626.00
2012,06,13,09,34,631.80
2012,06,13,09,35,635.80
2012,06,13,09,36,642.70
2012,06,13,09,37,642.80
2012,06,13,09,38,642.00
2012,06,13,09,39,642.00
2012,06,13,09,40,642.00
2012,06,13,09,41,642.00
2012,06,13,09,42,565.00
2012,06,13,09,43,561.00
2012,06,13,09,44,602.20
2012,06,13,09,45,664.00
2012,06,13,09,46,600.30
2012,06,13,09,47,615.90
2012,06,13,09,48,682.90
2012,06,13,09,49,686.00
2012,06,13,09,50,682.20
2012,06,13,09,51,674.80
2012,06,13,09,52,670.80
2012,06,13,09,53,668.30
2012,06,13,09,54,663.00
2012,06,13,09,55,665.40
2012,06,13,09,56,671.00
2012,06,13,09,57,671.00
2012,06,13,09,58,671.00
2012,06,13,09,59,672.20
2012,06,13,10,00,692.80
2012,06,13,10,01,687.50
2012,06,13,10,02,690.00
2012,06,13,10,03,697.80
2012,06,13,10,04,703.00
2012,06,13,10,05,702.50
2012,06,13,10,06,694.80
2012,06,13,10,07,696.50
2012,06,13,10,08,694.50
2012,06,13,10,09,698.60
2012,06,13,10,10,696.80
2012,06,13,10,11,696.30
2012,06,13,10,12,703.00
2012,06,13,10,13,703.70
2012,06,13,10,14,702.60
2012,06,13,10,15,708.20
2012,06,13,10,16,712.00
2012,06,13,10,17,712.30
2012,06,13,10,18,715.00
2012,06,13,10,19,715.80
2012,06,13,10,20,718.00
2012,06,13,10,21,720.30
2012,06,13,10,22,721.00
2012,06,13,10,23,722.00
2012,06,13,10,24,722.00
2012,06,13,10,25,724.90
2012,06,13,10,26,729.00
2012,06,13,10,27,731.80
2012,06,13,10,28,733.00
2012,06,13,10,29,733.00
2012,06,13,10,30,732.40
2012,06,13,10,31,735.00
2012,06,13,10,32,740.00
2012,06,13,10,33,741.50
2012,06,13,10,34,743.70
2012,06,13,10,35,744.60
2012,06,13,10,36,747.60
2012,06,13,10,37,748.10
2012,06,13,10,38,750.00
2012,06,13,10,39,752.00
2012,06,13,10,40,755.40
2012,06,13,10,41,756.00
2012,06,13,10,42,756.90
2012,06,13,10,43,758.50
2012,06,13,10,44,758.00
2012,06,13,10,45,765.90
2012,06,13,10,46,765.30
2012,06,13,10,47,766.00
2012,06,13,10,48,766.00
2012,06,13,10,49,769.50
2012,06,13,10,50,773.00
2012,06,13,10,51,773.00
2012,06,13,10,52,776.90
2012,06,13,10,53,780.80
2012,06,13,10,54,784.00
2012,06,13,10,55,788.50
2012,06,13,10,56,793.00
2012,06,13,10,57,793.00
2012,06,13,10,58,792.80
2012,06,13,10,59,791.40
2012,06,13,11,00,793.00
2012,06,13,11,01,795.60
2012,06,13,11,02,796.70
2012,06,13,11,03,796.00
2012,06,13,11,04,795.90
2012,06,13,11,05,795.00
2012,06,13,11,06,795.00
2012,06,13,11,07,795.00
2012,06,13,11,08,802.00
2012,06,13,11,09,820.30
2012,06,13,11,10,759.00
2012,06,13,11,11,759.00
2012,06,13,11,12,759.00
2012,06,13,11,13,792.60
2012,06,13,11,14,816.30
2012,06,13,11,15,822.00
2012,06,13,11,16,823.00
2012,06,13,11,17,823.00
2012,06,13,11,18,824.50
2012,06,13,11,19,824.70
2012,06,13,11,20,824.00
2012,06,13,11,21,824.20
2012,06,13,11,22,827.20
2012,06,13,11,23,824.60
2012,06,13,11,24,826.90
2012,06,13,11,25,828.00
2012,06,13,11,26,828.00
2012,06,13,11,27,769.90
2012,06,13,11,28,744.00
2012,06,13,11,29,776.50
2012,06,13,11,30,838.30
2012,06,13,11,31,838.10
2012,06,13,11,32,815.70
2012,06,13,11,33,799.50
2012,06,13,11,34,599.00
2012,06,13,11,35,599.00
2012,06,13,11,36,760.00
2012,06,13,11,37,942.50
2012,06,13,11,38,954.00
2012,06,13,11,39,954.00
2012,06,13,11,40,954.00
2012,06,13,11,41,954.00
2012,06,13,11,42,954.00
2012,06,13,11,43,954.00
2012,06,13,11,44,954.00
2012,06,13,11,45,438.00
2012,06,13,11,46,394.90
2012,06,13,11,47,393.60
2012,06,13,11,48,403.70
2012,06,13,11,49,429.80
2012,06,13,11,50,466.50
2012,06,13,11,51,519.00
2012,06,13,11,52,519.00
2012,06,13,11,53,519.00
2012,06,13,11,54,574.60
2012,06,13,11,55,615.00
2012,06,13,11,56,615.00
2012,06,13,11,57,615.00
2012,06,13,11,58,625.70
2012,06,13,11,59,649.00
2012,06,13,12,00,649.00
2012,06,13,12,01,649.00
2012,06,13,12,02,649.00
2012,06,13,12,03,649.00
2012,06,13,12,04,763.90
2012,06,13,12,05,1013.00
2012,06,13,12,06,1041.40
2012,06,13,12,07,1045.20
2012,06,13,12,08,1061.90
2012,06,13,12,09,1051.00
2012,06,13,12,10,1017.00
2012,06,13,12,11,906.10
2012,06,13,12,12,863.00
2012,06,13,12,13,863.00
2012,06,13,12,14,737.90
2012,06,13,12,15,724.00
2012,06,13,12,16,724.00
2012,06,13,12,17,724.00
2012,06,13,12,18,724.00
2012,06,13,12,19,724.00
2012,06,13,12,20,742.30
2012,06,13,12,21,916.00
2012,06,13,12,22,914.00
2012,06,13,12,23,911.00
2012,06,13,12,24,885.10
2012,06,13,12,25,874.00
2012,06,13,12,26,874.00
2012,06,13,12,27,874.00
2012,06,13,12,28,874.00
2012,06,13,12,29,748.00
2012,06,13,12,30,645.00
2012,06,13,12,31,529.60
2012,06,13,12,32,513.00
2012,06,13,12,33,543.00
2012,06,13,12,34,543.00
2012,06,13,12,35,543.00
2012,06,13,12,36,543.00
2012,06,13,12,37,543.00
2012,06,13,12,38,950.60
2012,06,13,12,39,960.00
2012,06,13,12,40,960.00
2012,06,13,12,41,1014.60
2012,06,13,12,42,1051.00
2012,06,13,12,43,1051.00
2012,06,13,12,44,1051.00
2012,06,13,12,45,1051.00
2012,06,13,12,46,1051.00
2012,06,13,12,47,1051.00
2012,06,13,12,48,1051.00
2012,06,13,12,49,1048.40
2012,06,13,12,50,1000.00
2012,06,13,12,51,995.80
2012,06,13,12,52,982.50
2012,06,13,12,53,964.70
2012,06,13,12,54,961.80
2012,06,13,12,55,939.60
2012,06,13,12,56,937.00
2012,06,13,12,57,877.40
2012,06,13,12,58,788.00
2012,06,13,12,59,788.00
2012,06,13,13,00,788.00
2012,06,13,13,01,1016.20
2012,06,13,13,02,1053.40
2012,06,13,13,03,1046.00
2012,06,13,13,04,1004.20
2012,06,13,13,05,960.90
2012,06,13,13,06,956.00
2012,06,13,13,07,959.80
2012,06,13,13,08,979.80
2012,06,13,13,09,981.60
2012,06,13,13,10,990.50
2012,06,13,13,11,991.00
2012,06,13,13,12,984.50
2012,06,13,13,13,966.90
2012,06,13,13,14,944.80
2012,06,13,13,15,931.00
2012,06,13,13,16,926.00
2012,06,13,13,17,926.00
2012,06,13,13,18,957.50
2012,06,13,13,19,974.00
2012,06,13,13,20,974.00
2012,06,13,13,21,923.20
2012,06,13,13,22,856.80
2012,06,13,13,23,854.00
2012,06,13,13,24,857.20
2012,06,13,13,25,927.20
2012,06,13,13,26,959.40
2012,06,13,13,27,959.90
2012,06,13,13,28,962.00
2012,06,13,13,29,962.00
2012,06,13,13,30,959.80
2012,06,13,13,31,918.00
2012,06,13,13,32,914.00
2012,06,13,13,33,910.80
2012,06,13,13,34,905.70
2012,06,13,13,35,904.20
2012,06,13,13,36,904.00
2012,06,13,13,37,903.50
2012,06,13,13,38,902.70
2012,06,13,13,39,904.00
2012,06,13,13,40,904.70
2012,06,13,13,41,905.00
2012,06,13,13,42,905.00
2012,06,13,13,43,908.20
2012,06,13,13,44,920.20
2012,06,13,13,45,919.00
2012,06,13,13,46,919.00
2012,06,13,13,47,916.60
2012,06,13,13,48,915.50
2012,06,13,13,49,911.00
2012,06,13,13,50,911.00
2012,06,13,13,51,900.70
2012,06,13,13,52,894.50
2012,06,13,13,53,891.60
2012,06,13,13,54,891.00
2012,06,13,13,55,891.00
2012,06,13,13,56,890.10
2012,06,13,13,57,889.00
2012,06,13,13,58,885.30
2012,06,13,13,59,882.30
2012,06,13,14,00,882.00
2012,06,13,14,01,882.00
2012,06,13,14,02,882.00
2012,06,13,14,03,882.00
2012,06,13,14,04,882.00
2012,06,13,14,05,883.90
2012,06,13,14,06,886.00
2012,06,13,14,07,886.00
2012,06,13,14,08,882.50
2012,06,13,14,09,876.40
2012,06,13,14,10,875.00
2012,06,13,14,11,875.00
2012,06,13,14,12,875.00
2012,06,13,14,13,875.00
2012,06,13,14,14,875.90
2012,06,13,14,15,878.30
2012,06,13,14,16,879.00
2012,06,13,14,17,877.50
2012,06,13,14,18,884.80
2012,06,13,14,19,888.00
2012,06,13,14,20,885.00
2012,06,13,14,21,882.00
2012,06,13,14,22,887.60
2012,06,13,14,23,883.10
2012,06,13,14,24,873.90
2012,06,13,14,25,870.00
2012,06,13,14,26,868.50
2012,06,13,14,27,867.70
2012,06,13,14,28,874.00
2012,06,13,14,29,873.50
2012,06,13,14,30,861.60
2012,06,13,14,31,865.90
2012,06,13,14,32,870.00
2012,06,13,14,33,870.00
2012,06,13,14,34,870.00
2012,06,13,14,35,881.00
2012,06,13,14,36,881.30
2012,06,13,14,37,882.00
2012,06,13,14,38,882.00
2012,06,13,14,39,882.00
2012,06,13,14,40,882.00
2012,06,13,14,41,891.00
2012,06,13,14,42,891.00
2012,06,13,14,43,891.00
2012,06,13,14,44,891.00
2012,06,13,14,45,891.00
2012,06,13,14,46,891.00
2012,06,13,14,47,893.60
2012,06,13,14,48,904.30
2012,06,13,14,49,905.00
2012,06,13,14,50,905.00
2012,06,13,14,51,892.40
2012,06,13,14,52,874.50
2012,06,13,14,53,599.00
2012,06,13,14,54,599.00
2012,06,13,14,55,599.00
2012,06,13,14,56,599.00
2012,06,13,14,57,599.00
2012,06,13,14,58,599.00
2012,06,13,14,59,599.00
2012,06,13,15,00,599.00
2012,06,13,15,01,576.50
2012,06,13,15,02,554.00
2012,06,13,15,03,554.00
2012,06,13,15,04,554.00
2012,06,13,15,05,640.80
2012,06,13,15,06,988.00
2012,06,13,15,07,1000.70
2012,06,13,15,08,1011.00
2012,06,13,15,09,1011.00
2012,06,13,15,10,1010.10
2012,06,13,15,11,997.60
2012,06,13,15,12,989.80
2012,06,13,15,13,1009.00
2012,06,13,15,14,1009.00
2012,06,13,15,15,847.50
2012,06,13,15,16,819.00
2012,06,13,15,17,819.00
2012,06,13,15,18,819.00
2012,06,13,15,19,819.00
2012,06,13,15,20,895.60
2012,06,13,15,21,948.50
2012,06,13,15,22,953.00
2012,06,13,15,23,906.50
2012,06,13,15,24,798.00
2012,06,13,15,25,798.00
2012,06,13,15,26,516.00
2012,06,13,15,27,422.00
2012,06,13,15,28,422.00
2012,06,13,15,29,422.00
2012,06,13,15,30,422.00
2012,06,13,15,31,399.80
2012,06,13,15,32,383.50
2012,06,13,15,33,384.90
2012,06,13,15,34,383.20
2012,06,13,15,35,372.50
2012,06,13,15,36,359.50
2012,06,13,15,37,347.80
2012,06,13,15,38,345.00
2012,06,13,15,39,349.50
2012,06,13,15,40,350.40
2012,06,13,15,41,352.00
2012,06,13,15,42,352.00
2012,06,13,15,43,352.00
2012,06,13,15,44,375.20
2012,06,13,15,45,352.50
2012,06,13,15,46,341.80
2012,06,13,15,47,338.00
2012,06,13,15,48,338.00
2012,06,13,15,49,370.90
2012,06,13,15,50,385.00
2012,06,13,15,51,393.50
2012,06,13,15,52,459.80
2012,06,13,15,53,441.00
2012,06,13,15,54,441.00
2012,06,13,15,55,413.00
2012,06,13,15,56,468.10
2012,06,13,15,57,451.70
2012,06,13,15,58,403.20
2012,06,13,15,59,421.10
2012,06,13,16,00,433.10
2012,06,13,16,01,457.00
2012,06,13,16,02,512.20
2012,06,13,16,03,494.00
2012,06,13,16,04,494.00
2012,06,13,16,05,494.00
2012,06,13,16,06,516.20
2012,06,13,16,07,531.00
2012,06,13,16,08,543.00
2012,06,13,16,09,783.20
2012,06,13,16,10,775.80
2012,06,13,16,11,767.80
2012,06,13,16,12,765.00
2012,06,13,16,13,765.00
2012,06,13,16,14,765.00
2012,06,13,16,15,759.00
2012,06,13,16,16,734.30
2012,06,13,16,17,733.00
2012,06,13,16,18,733.00
2012,06,13,16,19,722.50
2012,06,13,16,20,719.00
2012,06,13,16,21,719.00
2012,06,13,16,22,719.00
2012,06,13,16,23,719.00
2012,06,13,16,24,713.20
2012,06,13,16,25,710.00
2012,06,13,16,26,718.50
2012,06,13,16,27,719.00
2012,06,13,16,28,719.00
2012,06,13,16,29,719.00
2012,06,13,16,30,716.20
2012,06,13,16,31,715.00
2012,06,13,16,32,659.50
2012,06,13,16,33,696.00
2012,06,13,16,34,684.90
2012,06,13,16,35,666.80
2012,06,13,16,36,660.50
2012,06,13,16,37,656.50
2012,06,13,16,38,651.70
2012,06,13,16,39,649.10
2012,06,13,16,40,645.30
2012,06,13,16,41,641.30
2012,06,13,16,42,640.00
2012,06,13,16,43,640.00
2012,06,13,16,44,639.40
2012,06,13,16,45,636.60
2012,06,13,16,46,637.10
2012,06,13,16,47,635.40
2012,06,13,16,48,633.50
2012,06,13,16,49,632.80
2012,06,13,16,50,628.50
2012,06,13,16,51,625.30
2012,06,13,16,52,622.60
2012,06,13,16,53,618.60
2012,06,13,16,54,617.00
2012,06,13,16,55,617.00
2012,06,13,16,56,617.00
2012,06,13,16,57,612.10
2012,06,13,16,58,603.00
2012,06,13,16,59,601.70
2012,06,13,17,00,601.00
2012,06,13,17,01,601.00
2012,06,13,17,02,584.00
2012,06,13,17,03,561.80
2012,06,13,17,04,605.00
2012,06,13,17,05,605.00
2012,06,13,17,06,605.00
2012,06,13,17,07,604.40
2012,06,13,17,08,597.20
2012,06,13,17,09,590.80
2012,06,13,17,10,568.70
2012,06,13,17,11,552.00
2012,06,13,17,12,507.20
2012,06,13,17,13,496.00
2012,06,13,17,14,529.00
2012,06,13,17,15,626.40
2012,06,13,17,16,621.10
2012,06,13,17,17,619.00
2012,06,13,17,18,601.20
2012,06,13,17,19,587.70
2012,06,13,17,20,580.00
2012,06,13,17,21,574.10
2012,06,13,17,22,562.20